Regional Weather Roundup
Issued by NWS

Home | Current Version | Previous Version | Graphics & Text | Print | Product List | Glossary On
Versions: 1 2 3 4 5 6 7 8 9 10 11 12 13 14 15 16 17 18 19 20 21 22 23 24 25 26 27 28 29 30 31 32 33 34 35 36 37 38 39 40 41 42 43 44 45 46 47 48 49 50
000
ASUS45 KCYS 240010
RWRWY

WYOMING REGIONAL WEATHER ROUNDUP
NATIONAL WEATHER SERVICE CHEYENNE WY
600 PM MDT TUE SEP 23 2014

NOTE:  "FAIR" INDICATES FEW OR NO CLOUDS BELOW 12,000 FEET
WITH NO SIGNIFICANT WEATHER AND/OR OBSTRUCTIONS TO VISIBILITY.

WYZ001-240100-
YELLOWSTONE NATIONAL PARK

CITY           SKY/WX    TMP DP  RH WIND       PRES   REMARKS
LK YELLOWSTONE   N/A     61  44  53 VRB3      30.32S
6HR MIN TEMP:  53; 6HR MAX TEMP:  62;

W YELLOWSTONE  NOT AVBL

$$
WYZ002>013-054>058-071-098>099-240100-
NORTHERN WYOMING

CITY           SKY/WX    TMP DP  RH WIND       PRES   REMARKS
JACKSON        SUNNY     72  45  37 SW6       30.23S
CODY           SUNNY     75  43  31 SW5       30.08S
GREYBULL       SUNNY     84  39  20 CALM      30.00S
6HR MIN TEMP:  73; 6HR MAX TEMP:  84;

WORLAND        SUNNY     80  42  25 CALM      30.03S
6HR MIN TEMP:  73; 6HR MAX TEMP:  82;

SHERIDAN       SUNNY     77  49  37 N7        30.02R
6HR MIN TEMP:  77; 6HR MAX TEMP:  83;

BUFFALO        MOSUNNY   73  46  38 W10       30.09S
6HR MIN TEMP:  73; 6HR MAX TEMP:  79;

GILLETTE       LGT RAIN  77  43  29 NW13      30.02S
6HR MIN TEMP:  76; 6HR MAX TEMP:  81; 6HR PCP: TRACE;

HULETT         FAIR      77  46  33 MISG      30.02
NEWCASTLE      FAIR      79  41  25 NW9G17    30.00

$$
WYZ014>020-022>026-101>103-240100-
CENTRAL WYOMING

CITY           SKY/WX    TMP DP  RH WIND       PRES   REMARKS
BIG PINEY      SUNNY     71  37  28 N13       30.26S
6HR MIN TEMP:  64; 6HR MAX TEMP:  74;

PINEDALE       CLEAR     68  37  32 NW14      30.27R
DUBOIS         FAIR      64  34  32 NW12G17   30.25R
LANDER         PTSUNNY   74  42  31 SE5       30.11S
6HR MIN TEMP:  74; 6HR MAX TEMP:  79;

RIVERTON       MOSUNNY   75  38  26 E10       30.13R
6HR MIN TEMP:  71; 6HR MAX TEMP:  78;

CASPER         MOSUNNY   77  38  24 N9        30.11R
6HR MIN TEMP:  73; 6HR MAX TEMP:  80; 6HR PCP: TRACE;

DOUGLAS        MOCLDY    76  42  29 NW10      30.09R
6HR MIN TEMP:  70; 6HR MAX TEMP:  82; 6HR PCP: TRACE;


$$
WYZ021-027>030-104>119-240100-
SOUTHERN WYOMING

CITY           SKY/WX    TMP DP  RH WIND       PRES   REMARKS
EVANSTON       MOSUNNY   70  40  33 W13       30.29S
6HR MIN TEMP:  65; 6HR MAX TEMP:  73;

KEMMERER       CLEAR     68  36  30 W9G20     30.30S
FORT BRIDGER   FAIR      73  41  30 W10G18    30.30S
ROCK SPRINGS   SUNNY     71  40  32 W14G25    30.24S
6HR MIN TEMP:  64; 6HR MAX TEMP:  73;

DIXON          FAIR      69  46  43 W5        30.26S
RAWLINS        MOSUNNY   71  37  28 W14       30.22S
6HR MIN TEMP:  66; 6HR MAX TEMP:  73;

SARATOGA       MOCLDY    66  39  37 W12G17    30.26R
LARAMIE        MOSUNNY   66  39  37 W15G23    30.24R
6HR MIN TEMP:  63; 6HR MAX TEMP:  70;

CHEYENNE       MOCLDY    72  38  29 NW13G24   30.16S
6HR MIN TEMP:  69; 6HR MAX TEMP:  76;

TORRINGTON     PTCLDY    76  48  37 N8        30.02R
6HR MIN TEMP:  75; 6HR MAX TEMP:  84;

PINE BLUFFS    FAIR      73  43  33 N6        30.10S

$$


USA.gov is the U.S. government's official web portal to all federal, state and local government web resources and services.